Hourly Data Report for October 01, 2016

All times are specified in Local Standard Time (LST). Add 1 hour to adjust for Daylight Saving Time where and when it is observed.

PENTICTON A
BRITISH COLUMBIA

49°27'45.000" N
119°36'08.000" W
344.40 m
1126146
71889
YYF

Download Data

Hourly Data (October 2016)
Hourly Data Report for October 1, 2016
Temp Definition
°C
Dew Point Temp Definition
°C
Rel Hum Definition
%
Wind Dir Definition
10's deg

Wind Spd Definition
km/h
Visibility Definition
km
Stn Press Definition
kPa
Hmdx Definition


Wind Chill Definition


Weather Definition


TIME
00:00 Legend Double Dagger 13.2 3.6 52 36 3 24.1 97.02     LegendNANA
01:00 Legend Double Dagger 12.6 2.8 51 29 5 24.1 97.04     Mostly Cloudy
02:00 Legend Double Dagger 12.3 3.8 56 35 8 24.1 96.96     LegendNANA
03:00 Legend Double Dagger 13.1 4.1 54 32 7 24.1 96.97     LegendNANA
04:00 Legend Double Dagger 10.3 4.7 68 0 1 24.1 97.01     Mostly Cloudy
05:00 Legend Double Dagger 7.6 3.1 73 35 10 24.1 97.05     LegendNANA
06:00 Legend Double Dagger 8.6 3.1 68 36 10 24.1 97.13     LegendNANA
07:00 Legend Double Dagger 8.4 3.5 71 32 7 24.1 97.16     Mainly Clear
08:00 Legend Double Dagger 13.8 3.6 50 32 6 24.1 97.17     LegendNANA
09:00 Legend Double Dagger 15.9 3.1 42 4 6 24.1 97.13     LegendNANA
10:00 Legend Double Dagger 17.4 3.1 38 2 5 24.1 97.08     Mainly Clear
11:00 Legend Double Dagger 17.9 2.7 36 15 8 24.1 97.03     LegendNANA
12:00 Legend Double Dagger 19.5 2.1 31 17 23 24.1 97.01     LegendNANA
13:00 Legend Double Dagger 19.7 1.8 30 17 25 24.1 97.02     Mainly Clear
14:00 Legend Double Dagger 18.2 3.0 36 17 21 24.1 97.04     LegendNANA
15:00 Legend Double Dagger 17.7 2.2 35 20 22 24.1 97.13     Thunderstorms,Rain Showers
16:00 Legend Double Dagger 16.2 6.4 52 15 12 24.1 97.22     Mostly Cloudy
17:00 Legend Double Dagger 15.8 4.3 46 17 8 24.1 97.20     LegendNANA
18:00 Legend Double Dagger 14.0 5.7 57 23 14 24.1 97.25     LegendNANA
19:00 Legend Double Dagger 11.6 4.2 60 4 3 24.1 97.32     Mostly Cloudy
20:00 Legend Double Dagger 8.4 3.5 71 11 3 24.1 97.35     LegendNANA
21:00 Legend Double Dagger 6.3 2.8 78 33 4 24.1 97.39     LegendNANA
22:00 Legend Double Dagger 7.2 2.9 74 29 4 24.1 97.45     Mainly Clear
23:00 Legend Double Dagger 5.3 2.3 81 36 5 24.1 97.47     LegendNANA

Notes on Data Quality.

Legend

  • E = Estimated
  • M = Missing
  • NA = Not Available
  • ‡ = Partner data that is not subject to review by the National Climate Archives
Date modified: